[[{"header":{"parameterUnit":"m.s-1","parameterCategory":1,"la1":30.2992,"la2":30.254,"lo1":-89.0895,"lo2":-89.0443,"dy":0.0025,"dx":0.0025,"nx":19,"ny":19,"refTime":"2026-04-12T09:00:00:Z","depth":0,"parameterNumber":2,"parameterNumberName":"U-component_of_WINDS"},"data":[0,0,0,-1.8778,-1.878,-1.8875,-1.8876,-1.8996,-1.8997,0,0,0,0,0,0,0,0,0,0,0,-1.8747,-1.8748,-1.8778,-1.878,-1.8875,-1.8876,-1.8996,-1.8997,0,0,0,0,0,0,0,0,0,0,0,-1.8747,-1.8748,-1.8749,-1.878,-1.8875,-1.8876,-1.8996,-1.8925,0,0,0,0,0,0,0,0,0,0,-1.8832,-1.8802,-1.8748,-1.8749,-1.8781,-1.8875,-1.8876,-1.8921,-1.8929,-1.8952,0,-1.8971,0,-1.8986,-1.9005,-1.9006,0,0,0,-1.8782,-1.8795,-1.8823,-1.8749,-1.8782,-1.8875,-1.8833,-1.8926,-1.8934,-1.8962,-1.8972,-1.8977,-1.8988,-1.9006,-1.9006,-1.913,-1.913,0,0,-1.8776,-1.8763,-1.8816,-1.8828,-1.8812,-1.883,-1.8836,-1.8931,-1.8942,-1.8973,-1.898,-1.899,-1.9007,-1.9008,-1.9129,-1.913,0,0,0,-1.876,-1.876,-1.8785,-1.8823,-1.8841,-1.8832,-1.8839,-1.8937,-1.8947,-1.8981,-1.8991,-1.9007,-1.9009,-1.9129,-1.9129,-1.9141,0,0,0,-1.8757,-1.875,-1.8783,-1.8776,-1.8839,-1.889,-1.8844,-1.894,-1.8951,-1.8991,-1.9007,-1.901,-1.9128,-1.9129,-1.9139,-1.9148,0,0,0,-1.8742,-1.8748,-1.8761,-1.8775,-1.8815,-1.8889,-1.8904,-1.8943,-1.8957,-1.9006,-1.901,-1.9128,-1.9129,-1.9138,-1.9146,-1.9177,0,0,0,-1.8722,-1.877,-1.8761,-1.8819,-1.8814,-1.8895,-1.8903,-1.8964,-1.9006,-1.9008,-1.9128,-1.9129,-1.9138,-1.9145,-1.9176,-1.9201,-1.921,0,0,-1.8776,-1.8776,-1.8812,-1.8806,-1.8885,-1.8881,-1.8962,-1.9013,-1.903,-1.9096,-1.9099,-1.914,-1.9146,-1.9177,-1.9266,-1.9273,0,0,0,-1.8824,-1.8849,-1.8873,-1.8913,-1.8953,-1.8989,-1.9029,-1.9049,-1.9105,-1.9061,-1.916,-1.9164,-1.9182,-1.9195,-1.9201,-1.9218,-1.9134,-1.9134,-1.9134,-1.8882,-1.8901,-1.896,-1.899,-1.9029,-1.907,-1.9104,-1.9137,-1.9145,-1.9168,-1.9187,-1.9239,-1.9253,-1.9258,-1.9275,-1.9202,-1.9202,-1.9202,-1.9202,-1.8963,-1.9002,-1.9011,-1.9072,-1.9091,-1.9143,-1.9185,-1.9189,-1.9241,-1.9225,-1.9243,-1.9224,-1.9265,-1.9281,-1.9203,-1.9203,-1.9203,-1.9203,-1.9203,-1.9003,-1.9025,-1.9047,-1.9107,-1.9151,-1.918,-1.9229,-1.9245,-1.9261,-1.9278,-1.9301,-1.9301,-1.9303,-1.9288,-1.9288,-1.9288,-1.9288,-1.9288,-1.9289,-1.9036,-1.9061,-1.91,-1.9147,-1.9175,-1.9213,-1.9256,-1.9284,-1.9319,-1.9328,-1.9328,-1.9334,-1.9265,-1.9248,-1.9291,-1.9291,-1.929,-1.929,-1.929,-1.9113,-1.9098,-1.9158,-1.9186,-1.9242,-1.9285,-1.9305,-1.9361,-1.9387,-1.9411,-1.9413,-1.9359,-1.9362,-1.9357,-1.9343,-1.9408,-1.9408,-1.9408,-1.9408,-1.9147,-1.9149,-1.9214,-1.9258,-1.9302,-1.9326,-1.9395,-1.9428,-1.9461,-1.9478,-1.9471,-1.9454,-1.9448,-1.9454,-1.9447,-1.9434,-1.9521,-1.9521,-1.9521,-1.9195,-1.9202,-1.9257,-1.9288,-1.9333,-1.9372,-1.9437,-1.9488,-1.9522,-1.9526,-1.9492,-1.9488,-1.946,-1.9449,-1.9453,-1.9442,-1.9419,0,0]},{"header":{"parameterUnit":"m.s-1","parameterCategory":1,"la1":30.2992,"la2":30.254,"lo1":-89.0895,"lo2":-89.0443,"dy":0.0025,"dx":0.0025,"nx":19,"ny":19,"refTime":"2026-04-12T09:00:00:Z","depth":0,"parameterNumber":3,"parameterNumberName":"V-component_of_WINDS"},"data":[0,0,0,4.3349,4.3351,4.3408,4.3408,4.349,4.349,0,0,0,0,0,0,0,0,0,0,0,4.3339,4.334,4.3349,4.3351,4.3408,4.3408,4.3489,4.349,0,0,0,0,0,0,0,0,0,0,0,4.3339,4.334,4.3341,4.3351,4.3408,4.3408,4.3489,4.3443,0,0,0,0,0,0,0,0,0,0,4.3386,4.3384,4.334,4.3341,4.3351,4.3408,4.3408,4.344,4.3446,4.3468,0,4.3491,0,4.3492,4.3497,4.3497,0,0,0,4.3345,4.3379,4.3389,4.3341,4.3352,4.3408,4.338,4.3443,4.3449,4.3475,4.3492,4.3495,4.3494,4.3497,4.3498,4.3649,4.365,0,0,4.3342,4.3353,4.3385,4.3393,4.3387,4.3379,4.3382,4.3447,4.3466,4.3493,4.3497,4.3495,4.3498,4.3499,4.3648,4.3649,0,0,0,4.3337,4.3351,4.3358,4.339,4.34,4.338,4.3385,4.3463,4.3464,4.3498,4.3496,4.3498,4.3499,4.3647,4.3649,4.3707,0,0,0,4.3335,4.3348,4.3357,4.3365,4.3399,4.3432,4.3399,4.346,4.3467,4.3496,4.3498,4.35,4.3646,4.3648,4.3703,4.3733,0,0,0,4.3333,4.3348,4.3359,4.3365,4.339,4.3431,4.3436,4.3461,4.3466,4.3497,4.3501,4.3645,4.3648,4.37,4.3727,4.3776,0,0,0,4.3334,4.341,4.336,4.3443,4.339,4.3468,4.3435,4.3492,4.3526,4.3499,4.3646,4.3648,4.3699,4.3724,4.3772,4.3818,4.3838,0,0,4.3436,4.3423,4.3471,4.3427,4.3517,4.3458,4.3556,4.3575,4.3567,4.3622,4.3625,4.3705,4.3727,4.3775,4.395,4.3967,0,0,0,4.3506,4.3541,4.3562,4.3596,4.3613,4.363,4.3634,4.3641,4.3687,4.3598,4.3735,4.3748,4.3776,4.3797,4.3811,4.3833,4.3659,4.3659,4.3659,4.3665,4.3652,4.373,4.3724,4.3756,4.3759,4.3783,4.3793,4.377,4.3803,4.3818,4.3927,4.3952,4.3963,4.3986,4.3842,4.3842,4.3843,4.3843,4.3812,4.3858,4.3826,4.389,4.3875,4.3928,4.3933,4.3915,4.3961,4.3914,4.3937,4.3886,4.3981,4.4001,4.3847,4.3846,4.3846,4.3845,4.3845,4.3914,4.3933,4.3942,4.3987,4.4024,4.4014,4.406,4.4044,4.403,4.4053,4.4068,4.4067,4.4063,4.4061,4.4062,4.4062,4.4063,4.4063,4.4063,4.4016,4.4023,4.4064,4.4089,4.4108,4.413,4.4134,4.4151,4.4166,4.4151,4.4151,4.4123,4.3993,4.396,4.4069,4.4068,4.4067,4.4067,4.4066,4.4168,4.4131,4.4195,4.4214,4.4241,4.4277,4.4257,4.4294,4.4306,4.4329,4.4296,4.4203,4.4188,4.4177,4.4149,4.43,4.43,4.43,4.43,4.4254,4.4245,4.4306,4.4337,4.4365,4.4353,4.4424,4.4427,4.4423,4.443,4.4406,4.4368,4.4357,4.4348,4.4334,4.4308,4.4495,4.4496,4.4496,4.4346,4.4339,4.4403,4.44,4.442,4.4437,4.4502,4.4538,4.4526,4.4503,4.4434,4.4426,4.4365,4.4346,4.4321,4.4298,4.425,0,0]}]]